Time,TemperatureF,DewpointF,PressureIn,WindDirection,WindDirectionDegrees,WindSpeedMPH,WindSpeedGustMPH,Humidity,HourlyPrecipIn,Conditions,Clouds,dailyrainin,SoftwareType,DateUTC
2013-03-31 00:00:00,37.6,35.2,30.10,SSW,198,0.0,0.0,91,0.00,,,0.00,Wunderground v.1.15,2013-03-31 04:00:00,
2013-03-31 00:01:00,37.6,35.2,30.10,SSW,198,0.0,0.0,91,0.00,,,0.00,Wunderground v.1.15,2013-03-31 04:01:00,
2013-03-31 00:06:00,37.5,35.1,30.10,SSW,198,0.0,0.0,91,0.00,,,0.00,Wunderground v.1.15,2013-03-31 04:06:00,
2013-03-31 00:07:00,37.5,35.1,30.10,SSW,198,0.0,0.0,91,0.00,,,0.00,Wunderground v.1.15,2013-03-31 04:07:00,
2013-03-31 00:12:00,37.2,34.5,30.10,SSW,198,0.0,0.0,90,0.00,,,0.00,Wunderground v.1.15,2013-03-31 04:12:00,
2013-03-31 00:18:00,37.0,34.6,30.10,SSW,198,0.0,0.0,91,0.00,,,0.00,Wunderground v.1.15,2013-03-31 04:18:00,
2013-03-31 00:23:00,36.8,34.4,30.10,SSW,198,0.0,0.0,91,0.00,,,0.00,Wunderground v.1.15,2013-03-31 04:23:00,
2013-03-31 00:29:00,36.6,34.2,30.10,SSW,198,0.0,0.0,91,0.00,,,0.00,Wunderground v.1.15,2013-03-31 04:29:00,
2013-03-31 00:34:00,36.5,34.1,30.10,SSW,198,0.0,0.0,91,0.00,,,0.00,Wunderground v.1.15,2013-03-31 04:34:00,
2013-03-31 00:39:00,36.4,34.3,30.10,SSW,198,0.0,0.0,92,0.00,,,0.00,Wunderground v.1.15,2013-03-31 04:39:00,
2013-03-31 00:44:00,36.3,34.2,30.10,SSW,198,0.0,0.0,92,0.00,,,0.00,Wunderground v.1.15,2013-03-31 04:44:00,
2013-03-31 00:49:00,36.5,34.9,30.11,South,186,0.0,2.0,94,0.00,,,0.00,Wunderground v.1.15,2013-03-31 04:49:00,
2013-03-31 00:55:00,36.9,35.6,30.11,SSW,212,0.0,1.0,95,0.00,,,0.00,Wunderground v.1.15,2013-03-31 04:55:00,
2013-03-31 01:01:00,37.2,35.9,30.11,SW,225,0.0,0.0,95,0.00,,,0.00,Wunderground v.1.15,2013-03-31 05:01:00,
2013-03-31 01:06:00,37.5,36.2,30.11,SW,214,0.0,2.0,95,0.00,,,0.00,Wunderground v.1.15,2013-03-31 05:06:00,
2013-03-31 01:11:00,37.7,36.4,30.11,SW,225,0.0,0.0,95,0.00,,,0.00,Wunderground v.1.15,2013-03-31 05:11:00,
2013-03-31 01:16:00,38.0,36.7,30.11,SSW,202,1.0,3.0,95,0.00,,,0.00,Wunderground v.1.15,2013-03-31 05:16:00,
2013-03-31 01:22:00,38.4,37.1,30.11,SSW,205,1.0,2.0,95,0.00,,,0.00,Wunderground v.1.15,2013-03-31 05:22:00,
2013-03-31 01:28:00,38.6,37.3,30.11,SW,227,0.0,2.0,95,0.00,,,0.00,Wunderground v.1.15,2013-03-31 05:28:00,
2013-03-31 01:33:00,38.6,37.3,30.11,SW,227,0.0,1.0,95,0.00,,,0.00,Wunderground v.1.15,2013-03-31 05:33:00,
2013-03-31 01:39:00,38.6,37.0,30.11,SW,219,0.0,1.0,94,0.00,,,0.00,Wunderground v.1.15,2013-03-31 05:39:00,
2013-03-31 01:45:00,38.6,37.0,30.11,WSW,240,0.0,3.0,94,0.00,,,0.00,Wunderground v.1.15,2013-03-31 05:45:00,
2013-03-31 01:50:00,38.6,37.0,30.11,WSW,241,0.0,0.0,94,0.00,,,0.00,Wunderground v.1.15,2013-03-31 05:50:00,
2013-03-31 01:55:00,38.5,36.7,30.11,WSW,241,0.0,0.0,93,0.00,,,0.00,Wunderground v.1.15,2013-03-31 05:55:00,
2013-03-31 02:01:00,38.3,36.5,30.11,WSW,241,0.0,0.0,93,0.00,,,0.00,Wunderground v.1.15,2013-03-31 06:01:00,
2013-03-31 02:07:00,38.1,36.3,30.11,WSW,241,0.0,0.0,93,0.00,,,0.00,Wunderground v.1.15,2013-03-31 06:07:00,
2013-03-31 02:13:00,37.9,36.1,30.11,WSW,241,0.0,0.0,93,0.00,,,0.00,Wunderground v.1.15,2013-03-31 06:13:00,
2013-03-31 02:19:00,37.7,35.6,30.11,WSW,241,0.0,0.0,92,0.00,,,0.00,Wunderground v.1.15,2013-03-31 06:19:00,
2013-03-31 02:24:00,37.5,35.4,30.11,WSW,241,0.0,0.0,92,0.00,,,0.00,Wunderground v.1.15,2013-03-31 06:24:00,
2013-03-31 02:29:00,37.3,35.2,30.11,WSW,241,0.0,0.0,92,0.00,,,0.00,Wunderground v.1.15,2013-03-31 06:29:00,
2013-03-31 02:34:00,37.0,34.9,30.11,WSW,241,0.0,0.0,92,0.00,,,0.00,Wunderground v.1.15,2013-03-31 06:34:00,
2013-03-31 02:40:00,36.7,34.6,30.11,SW,233,0.0,0.0,92,0.00,,,0.00,Wunderground v.1.15,2013-03-31 06:40:00,
2013-03-31 02:45:00,36.5,34.4,30.11,SW,233,0.0,0.0,92,0.00,,,0.00,Wunderground v.1.15,2013-03-31 06:45:00,
2013-03-31 02:51:00,36.3,34.2,30.10,SW,233,0.0,0.0,92,0.00,,,0.00,Wunderground v.1.15,2013-03-31 06:51:00,
2013-03-31 02:57:00,36.1,34.0,30.10,SW,233,0.0,0.0,92,0.00,,,0.00,Wunderground v.1.15,2013-03-31 06:57:00,
2013-03-31 03:02:00,35.9,33.8,30.10,SW,233,0.0,0.0,92,0.00,,,0.00,Wunderground v.1.15,2013-03-31 07:02:00,
2013-03-31 03:08:00,35.6,33.5,30.10,SW,233,0.0,0.0,92,0.00,,,0.00,Wunderground v.1.15,2013-03-31 07:08:00,
2013-03-31 03:14:00,35.3,33.2,30.10,SW,233,0.0,0.0,92,0.00,,,0.00,Wunderground v.1.15,2013-03-31 07:14:00,
2013-03-31 03:19:00,34.9,32.5,30.10,SW,233,0.0,0.0,91,0.00,,,0.00,Wunderground v.1.15,2013-03-31 07:19:00,
2013-03-31 03:24:00,34.5,32.4,30.10,SW,233,0.0,0.0,92,0.00,,,0.00,Wunderground v.1.15,2013-03-31 07:24:00,
2013-03-31 03:30:00,34.3,32.5,30.10,SW,233,0.0,1.0,93,0.00,,,0.00,Wunderground v.1.15,2013-03-31 07:30:00,
2013-03-31 03:35:00,34.2,32.4,30.10,SW,233,0.0,1.0,93,0.00,,,0.00,Wunderground v.1.15,2013-03-31 07:35:00,
2013-03-31 03:40:00,34.2,32.4,30.10,SW,233,0.0,0.0,93,0.00,,,0.00,Wunderground v.1.15,2013-03-31 07:40:00,
2013-03-31 03:46:00,34.2,32.4,30.10,SW,233,0.0,0.0,93,0.00,,,0.00,Wunderground v.1.15,2013-03-31 07:46:00,
2013-03-31 03:51:00,34.2,32.7,30.11,SW,233,0.0,0.0,94,0.00,,,0.00,Wunderground v.1.15,2013-03-31 07:51:00,
2013-03-31 03:56:00,34.2,32.7,30.11,SW,233,0.0,0.0,94,0.00,,,0.00,Wunderground v.1.15,2013-03-31 07:56:00,
2013-03-31 04:02:00,34.3,32.8,30.11,SW,228,0.0,0.0,94,0.00,,,0.00,Wunderground v.1.15,2013-03-31 08:02:00,
2013-03-31 04:07:00,34.4,32.9,30.11,SW,228,0.0,0.0,94,0.00,,,0.00,Wunderground v.1.15,2013-03-31 08:07:00,
2013-03-31 04:13:00,34.6,33.1,30.11,SW,228,0.0,0.0,94,0.00,,,0.00,Wunderground v.1.15,2013-03-31 08:13:00,
2013-03-31 04:19:00,34.7,33.2,30.11,SW,228,0.0,1.0,94,0.00,,,0.00,Wunderground v.1.15,2013-03-31 08:19:00,
2013-03-31 04:25:00,34.9,33.6,30.11,SW,228,0.0,1.0,95,0.00,,,0.00,Wunderground v.1.15,2013-03-31 08:25:00,
2013-03-31 04:31:00,35.0,33.7,30.11,SW,228,0.0,0.0,95,0.00,,,0.00,Wunderground v.1.15,2013-03-31 08:31:00,
2013-03-31 04:36:00,35.0,33.7,30.11,SW,228,0.0,0.0,95,0.00,,,0.00,Wunderground v.1.15,2013-03-31 08:36:00,
2013-03-31 04:41:00,35.0,33.4,30.11,SW,228,0.0,0.0,94,0.00,,,0.00,Wunderground v.1.15,2013-03-31 08:41:00,
2013-03-31 04:46:00,35.0,33.4,30.11,SW,228,0.0,0.0,94,0.00,,,0.00,Wunderground v.1.15,2013-03-31 08:46:00,
2013-03-31 04:52:00,34.9,33.3,30.11,SW,228,0.0,0.0,94,0.00,,,0.00,Wunderground v.1.15,2013-03-31 08:52:00,
2013-03-31 04:57:00,34.8,33.2,30.11,SW,228,0.0,0.0,94,0.00,,,0.00,Wunderground v.1.15,2013-03-31 08:57:00,
2013-03-31 05:03:00,34.7,33.2,30.11,SW,228,0.0,0.0,94,0.00,,,0.00,Wunderground v.1.15,2013-03-31 09:03:00,
2013-03-31 05:09:00,34.7,33.2,30.11,SW,228,0.0,0.0,94,0.00,,,0.00,Wunderground v.1.15,2013-03-31 09:09:00,
2013-03-31 05:14:00,34.6,33.1,30.11,SSW,203,0.0,0.0,94,0.00,,,0.00,Wunderground v.1.15,2013-03-31 09:14:00,
2013-03-31 05:19:00,34.7,33.4,30.11,SSW,203,0.0,0.0,95,0.00,,,0.00,Wunderground v.1.15,2013-03-31 09:19:00,
2013-03-31 05:25:00,34.8,33.5,30.12,SSW,203,0.0,0.0,95,0.00,,,0.00,Wunderground v.1.15,2013-03-31 09:25:00,
2013-03-31 05:31:00,34.7,33.2,30.12,SSW,203,0.0,0.0,94,0.00,,,0.00,Wunderground v.1.15,2013-03-31 09:31:00,
2013-03-31 05:36:00,34.7,33.2,30.12,SSW,203,0.0,0.0,94,0.00,,,0.00,Wunderground v.1.15,2013-03-31 09:36:00,
2013-03-31 05:41:00,34.6,33.1,30.12,SSW,203,0.0,0.0,94,0.00,,,0.00,Wunderground v.1.15,2013-03-31 09:41:00,
2013-03-31 05:47:00,34.6,33.3,30.11,SSW,203,0.0,0.0,95,0.00,,,0.00,Wunderground v.1.15,2013-03-31 09:47:00,
2013-03-31 05:53:00,34.4,32.9,30.11,SSW,203,0.0,0.0,94,0.00,,,0.00,Wunderground v.1.15,2013-03-31 09:53:00,
2013-03-31 05:58:00,34.2,32.4,30.11,SSW,203,0.0,0.0,93,0.00,,,0.00,Wunderground v.1.15,2013-03-31 09:58:00,
2013-03-31 06:03:00,33.9,32.1,30.11,SSW,203,0.0,0.0,93,0.00,,,0.00,Wunderground v.1.15,2013-03-31 10:03:00,
2013-03-31 06:09:00,33.6,32.1,30.11,SSW,203,0.0,0.0,94,0.00,,,0.00,Wunderground v.1.15,2013-03-31 10:09:00,
2013-03-31 06:14:00,33.5,32.0,30.11,SSW,203,0.0,0.0,94,0.00,,,0.00,Wunderground v.1.15,2013-03-31 10:14:00,
2013-03-31 06:20:00,33.4,31.6,30.11,SSW,203,0.0,0.0,93,0.00,,,0.00,Wunderground v.1.15,2013-03-31 10:20:00,
2013-03-31 06:25:00,33.1,31.3,30.11,SSW,203,0.0,0.0,93,0.00,,,0.00,Wunderground v.1.15,2013-03-31 10:25:00,
2013-03-31 06:31:00,32.7,30.9,30.11,SSW,203,0.0,0.0,93,0.00,,,0.00,Wunderground v.1.15,2013-03-31 10:31:00,
2013-03-31 06:36:00,32.6,31.1,30.11,SSW,203,0.0,0.0,94,0.00,,,0.00,Wunderground v.1.15,2013-03-31 10:36:00,
2013-03-31 06:41:00,32.9,31.6,30.12,SSW,203,0.0,0.0,95,0.00,,,0.00,Wunderground v.1.15,2013-03-31 10:41:00,
2013-03-31 06:47:00,33.2,32.2,30.12,SSW,203,0.0,0.0,96,0.00,,,0.00,Wunderground v.1.15,2013-03-31 10:47:00,
2013-03-31 06:53:00,33.4,32.4,30.12,SSW,203,0.0,0.0,96,0.00,,,0.00,Wunderground v.1.15,2013-03-31 10:53:00,
2013-03-31 06:58:00,33.7,32.7,30.12,SSW,203,0.0,0.0,96,0.00,,,0.00,Wunderground v.1.15,2013-03-31 10:58:00,
2013-03-31 07:03:00,33.8,32.5,30.12,SSW,202,0.0,0.0,95,0.00,,,0.00,Wunderground v.1.15,2013-03-31 11:03:00,
2013-03-31 07:09:00,34.0,32.7,30.13,SSW,202,0.0,0.0,95,0.00,,,0.00,Wunderground v.1.15,2013-03-31 11:09:00,
2013-03-31 07:14:00,34.2,33.2,30.13,SSW,207,0.0,1.0,96,0.00,,,0.00,Wunderground v.1.15,2013-03-31 11:14:00,
2013-03-31 07:20:00,34.8,33.8,30.13,SW,225,0.0,0.0,96,0.00,,,0.00,Wunderground v.1.15,2013-03-31 11:20:00,
2013-03-31 07:26:00,35.4,34.6,30.13,SW,223,0.0,0.0,97,0.00,,,0.00,Wunderground v.1.15,2013-03-31 11:26:00,
2013-03-31 07:31:00,35.9,34.9,30.13,SW,223,0.0,0.0,96,0.00,,,0.00,Wunderground v.1.15,2013-03-31 11:31:00,
2013-03-31 07:36:00,36.2,35.2,30.13,SW,223,0.0,0.0,96,0.00,,,0.00,Wunderground v.1.15,2013-03-31 11:36:00,
2013-03-31 07:42:00,36.6,35.6,30.13,SW,223,0.0,0.0,96,0.00,,,0.00,Wunderground v.1.15,2013-03-31 11:42:00,
2013-03-31 07:47:00,37.1,36.1,30.13,WSW,247,0.0,0.0,96,0.00,,,0.00,Wunderground v.1.15,2013-03-31 11:47:00,
2013-03-31 07:52:00,37.7,36.4,30.13,WSW,249,0.0,0.0,95,0.00,,,0.00,Wunderground v.1.15,2013-03-31 11:52:00,
2013-03-31 07:58:00,38.8,37.5,30.13,WSW,245,0.0,1.0,95,0.00,,,0.00,Wunderground v.1.15,2013-03-31 11:58:00,
2013-03-31 08:03:00,39.8,38.2,30.13,WSW,244,0.0,0.0,94,0.00,,,0.00,Wunderground v.1.15,2013-03-31 12:03:00,
2013-03-31 08:09:00,41.0,38.6,30.13,WSW,238,0.0,1.0,91,0.00,,,0.00,Wunderground v.1.15,2013-03-31 12:09:00,
2013-03-31 08:14:00,42.1,39.1,30.13,WSW,254,0.0,1.0,89,0.00,,,0.00,Wunderground v.1.15,2013-03-31 12:14:00,
2013-03-31 08:20:00,43.2,39.3,30.13,WSW,254,0.0,0.0,86,0.00,,,0.00,Wunderground v.1.15,2013-03-31 12:20:00,
2013-03-31 08:26:00,44.1,39.3,30.13,WSW,255,0.0,1.0,83,0.00,,,0.00,Wunderground v.1.15,2013-03-31 12:26:00,
2013-03-31 08:32:00,44.8,39.3,30.13,WSW,255,0.0,0.0,81,0.00,,,0.00,Wunderground v.1.15,2013-03-31 12:32:00,
2013-03-31 08:37:00,45.4,38.3,30.12,SW,219,0.0,1.0,76,0.00,,,0.00,Wunderground v.1.15,2013-03-31 12:37:00,
2013-03-31 08:43:00,46.2,39.4,30.13,SW,219,0.0,0.0,77,0.00,,,0.00,Wunderground v.1.15,2013-03-31 12:43:00,
2013-03-31 08:48:00,46.9,39.0,30.12,SW,225,0.0,2.0,74,0.00,,,0.00,Wunderground v.1.15,2013-03-31 12:48:00,
2013-03-31 08:54:00,47.6,39.0,30.12,WSW,242,0.0,2.0,72,0.00,,,0.00,Wunderground v.1.15,2013-03-31 12:54:00,
2013-03-31 09:00:00,48.1,39.1,30.11,WSW,242,0.0,0.0,71,0.00,,,0.00,Wunderground v.1.15,2013-03-31 13:00:00,
2013-03-31 09:05:00,48.8,39.1,30.12,WSW,242,0.0,2.0,69,0.00,,,0.00,Wunderground v.1.15,2013-03-31 13:05:00,
2013-03-31 09:10:00,49.3,38.4,30.11,WSW,245,1.0,1.0,66,0.00,,,0.00,Wunderground v.1.15,2013-03-31 13:10:00,
2013-03-31 09:15:00,49.8,38.5,30.11,WSW,245,0.0,1.0,65,0.00,,,0.00,Wunderground v.1.15,2013-03-31 13:15:00,
2013-03-31 09:22:00,50.5,39.2,30.11,West,274,0.0,2.0,65,0.00,,,0.00,Wunderground v.1.15,2013-03-31 13:22:00,
2013-03-31 09:27:00,51.5,38.5,30.11,WNW,283,1.0,2.0,61,0.00,,,0.00,Wunderground v.1.15,2013-03-31 13:27:00,
2013-03-31 09:32:00,52.3,38.4,30.11,WNW,284,0.0,1.0,59,0.00,,,0.00,Wunderground v.1.15,2013-03-31 13:32:00,
2013-03-31 09:38:00,53.0,37.3,30.11,WSW,251,1.0,3.0,55,0.00,,,0.00,Wunderground v.1.15,2013-03-31 13:38:00,
2013-03-31 09:43:00,53.8,36.1,30.11,West,261,1.0,1.0,51,0.00,,,0.00,Wunderground v.1.15,2013-03-31 13:43:00,
2013-03-31 09:48:00,54.4,37.1,30.11,WSW,250,1.0,2.0,52,0.00,,,0.00,Wunderground v.1.15,2013-03-31 13:48:00,
2013-03-31 09:53:00,55.0,36.7,30.11,WSW,250,1.0,2.0,50,0.00,,,0.00,Wunderground v.1.15,2013-03-31 13:53:00,
2013-03-31 09:59:00,55.1,35.2,30.11,West,279,2.0,5.0,47,0.00,,,0.00,Wunderground v.1.15,2013-03-31 13:59:00,
2013-03-31 10:04:00,54.9,34.5,30.11,West,271,3.0,3.0,46,0.00,,,0.00,Wunderground v.1.15,2013-03-31 14:04:00,
2013-03-31 10:10:00,54.8,34.4,30.12,West,265,3.0,3.0,46,0.00,,,0.00,Wunderground v.1.15,2013-03-31 14:10:00,
2013-03-31 10:16:00,54.6,33.1,30.12,West,263,3.0,6.0,44,0.00,,,0.00,Wunderground v.1.15,2013-03-31 14:16:00,
2013-03-31 10:22:00,53.9,31.3,30.12,WNW,285,3.0,7.0,42,0.00,,,0.00,Wunderground v.1.15,2013-03-31 14:22:00,
2013-03-31 10:28:00,53.6,35.4,30.12,West,267,2.0,7.0,50,0.00,,,0.00,Wunderground v.1.15,2013-03-31 14:28:00,
2013-03-31 10:33:00,53.4,38.1,30.12,West,271,3.0,5.0,56,0.00,,,0.00,Wunderground v.1.15,2013-03-31 14:33:00,
2013-03-31 10:39:00,53.2,38.8,30.12,WSW,238,3.0,7.0,58,0.00,,,0.00,Wunderground v.1.15,2013-03-31 14:39:00,
2013-03-31 10:44:00,52.9,39.8,30.12,WSW,250,3.0,7.0,61,0.00,,,0.00,Wunderground v.1.15,2013-03-31 14:44:00,
2013-03-31 10:49:00,52.8,40.1,30.11,West,261,3.0,7.0,62,0.00,,,0.00,Wunderground v.1.15,2013-03-31 14:49:00,
2013-03-31 10:55:00,53.2,40.9,30.11,WSW,251,2.0,5.0,63,0.00,,,0.00,Wunderground v.1.15,2013-03-31 14:55:00,
2013-03-31 11:01:00,53.3,41.0,30.11,SW,215,3.0,5.0,63,0.00,,,0.00,Wunderground v.1.15,2013-03-31 15:01:00,
2013-03-31 11:07:00,53.7,41.0,30.11,SW,236,3.0,7.0,62,0.00,,,0.00,Wunderground v.1.15,2013-03-31 15:07:00,
2013-03-31 11:13:00,53.9,41.2,30.11,West,269,3.0,7.0,62,0.00,,,0.00,Wunderground v.1.15,2013-03-31 15:13:00,
2013-03-31 11:19:00,53.9,40.3,30.11,WSW,257,3.0,7.0,60,0.00,,,0.00,Wunderground v.1.15,2013-03-31 15:19:00,
2013-03-31 11:24:00,54.2,40.6,30.11,WSW,257,3.0,4.0,60,0.00,,,0.00,Wunderground v.1.15,2013-03-31 15:24:00,
2013-03-31 11:29:00,54.3,41.1,30.11,West,267,3.0,5.0,61,0.00,,,0.00,Wunderground v.1.15,2013-03-31 15:29:00,
2013-03-31 11:35:00,54.4,40.4,30.11,WNW,296,2.0,3.0,59,0.00,,,0.00,Wunderground v.1.15,2013-03-31 15:35:00,
2013-03-31 11:40:00,54.6,40.1,30.11,West,266,2.0,4.0,58,0.00,,,0.00,Wunderground v.1.15,2013-03-31 15:40:00,
2013-03-31 11:46:00,54.6,40.6,30.11,West,269,3.0,6.0,59,0.00,,,0.00,Wunderground v.1.15,2013-03-31 15:46:00,
2013-03-31 11:52:00,54.7,40.6,30.11,West,265,3.0,7.0,59,0.00,,,0.00,Wunderground v.1.15,2013-03-31 15:52:00,
2013-03-31 11:57:00,55.1,40.6,30.11,WSW,257,3.0,7.0,58,0.00,,,0.00,Wunderground v.1.15,2013-03-31 15:57:00,
2013-03-31 12:03:00,54.9,39.9,30.11,West,272,3.0,7.0,57,0.00,,,0.00,Wunderground v.1.15,2013-03-31 16:03:00,
2013-03-31 12:09:00,54.2,41.0,30.11,WSW,242,4.0,7.0,61,0.00,,,0.00,Wunderground v.1.15,2013-03-31 16:09:00,
2013-03-31 12:15:00,53.5,41.6,30.11,WSW,239,3.0,4.0,64,0.00,,,0.00,Wunderground v.1.15,2013-03-31 16:15:00,
2013-03-31 12:21:00,53.6,42.1,30.10,West,261,2.0,2.0,65,0.00,,,0.00,Wunderground v.1.15,2013-03-31 16:21:00,
2013-03-31 12:26:00,54.0,41.3,30.10,SSW,211,2.0,4.0,62,0.00,,,0.00,Wunderground v.1.15,2013-03-31 16:26:00,
2013-03-31 12:32:00,54.1,41.8,30.10,SW,217,2.0,4.0,63,0.00,,,0.00,Wunderground v.1.15,2013-03-31 16:32:00,
2013-03-31 12:38:00,53.7,41.0,30.10,SSW,194,3.0,6.0,62,0.00,,,0.00,Wunderground v.1.15,2013-03-31 16:38:00,
2013-03-31 12:43:00,53.7,40.6,30.10,West,264,3.0,5.0,61,0.00,,,0.00,Wunderground v.1.15,2013-03-31 16:43:00,
2013-03-31 12:49:00,54.1,40.5,30.10,WSW,243,4.0,10.0,60,0.00,,,0.00,Wunderground v.1.15,2013-03-31 16:49:00,
2013-03-31 12:54:00,54.4,38.6,30.10,SW,222,4.0,5.0,55,0.00,,,0.00,Wunderground v.1.15,2013-03-31 16:54:00,
2013-03-31 13:00:00,54.8,40.3,30.10,West,278,3.0,3.0,58,0.00,,,0.00,Wunderground v.1.15,2013-03-31 17:00:00,
2013-03-31 13:05:00,55.3,40.3,30.09,WNW,285,2.0,8.0,57,0.00,,,0.00,Wunderground v.1.15,2013-03-31 17:05:00,
2013-03-31 13:10:00,55.0,39.6,30.09,SW,230,2.0,2.0,56,0.00,,,0.00,Wunderground v.1.15,2013-03-31 17:10:00,
2013-03-31 13:16:00,54.1,39.6,30.09,SE,126,2.0,5.0,58,0.00,,,0.00,Wunderground v.1.15,2013-03-31 17:16:00,
2013-03-31 13:21:00,53.5,37.7,30.09,SSW,207,4.0,5.0,55,0.00,,,0.00,Wunderground v.1.15,2013-03-31 17:21:00,
2013-03-31 13:27:00,52.2,37.9,30.09,South,169,4.0,6.0,58,0.00,,,0.00,Wunderground v.1.15,2013-03-31 17:27:00,
2013-03-31 13:33:00,51.9,38.0,30.08,SE,144,4.0,6.0,59,0.00,,,0.00,Wunderground v.1.15,2013-03-31 17:33:00,
2013-03-31 13:39:00,51.6,38.2,30.08,SSE,152,3.0,6.0,60,0.00,,,0.00,Wunderground v.1.15,2013-03-31 17:39:00,
2013-03-31 13:45:00,51.9,38.9,30.08,South,186,3.0,4.0,61,0.00,,,0.00,Wunderground v.1.15,2013-03-31 17:45:00,
2013-03-31 13:50:00,52.0,39.0,30.08,SSW,199,3.0,3.0,61,0.00,,,0.00,Wunderground v.1.15,2013-03-31 17:50:00,
2013-03-31 13:56:00,52.6,39.5,30.07,WSW,240,2.0,6.0,61,0.00,,,0.00,Wunderground v.1.15,2013-03-31 17:56:00,
2013-03-31 14:01:00,52.8,39.3,30.07,SSW,192,2.0,4.0,60,0.00,,,0.00,Wunderground v.1.15,2013-03-31 18:01:00,
2013-03-31 14:07:00,52.4,38.9,30.07,SSW,196,3.0,8.0,60,0.00,,,0.00,Wunderground v.1.15,2013-03-31 18:07:00,
2013-03-31 14:12:00,52.0,38.1,30.07,SSW,193,4.0,6.0,59,0.00,,,0.00,Wunderground v.1.15,2013-03-31 18:12:00,
2013-03-31 14:18:00,51.8,39.2,30.07,SSW,207,4.0,6.0,62,0.00,,,0.00,Wunderground v.1.15,2013-03-31 18:18:00,
2013-03-31 14:23:00,51.4,39.6,30.07,SW,227,4.0,4.0,64,0.00,,,0.00,Wunderground v.1.15,2013-03-31 18:23:00,
2013-03-31 14:29:00,51.4,39.6,30.07,SW,234,3.0,5.0,64,0.00,,,0.00,Wunderground v.1.15,2013-03-31 18:29:00,
2013-03-31 14:34:00,51.1,39.7,30.06,SSW,209,3.0,6.0,65,0.00,,,0.00,Wunderground v.1.15,2013-03-31 18:34:00,
2013-03-31 14:40:00,50.8,39.8,30.06,South,190,4.0,4.0,66,0.00,,,0.00,Wunderground v.1.15,2013-03-31 18:40:00,
2013-03-31 14:45:00,50.8,40.2,30.06,South,170,4.0,5.0,67,0.00,,,0.00,Wunderground v.1.15,2013-03-31 18:45:00,
2013-03-31 14:51:00,50.5,40.3,30.06,SW,229,4.0,4.0,68,0.00,,,0.00,Wunderground v.1.15,2013-03-31 18:51:00,
2013-03-31 14:56:00,50.6,40.4,30.06,WSW,245,4.0,6.0,68,0.00,,,0.00,Wunderground v.1.15,2013-03-31 18:56:00,
2013-03-31 15:01:00,50.5,39.9,30.06,SW,236,4.0,4.0,67,0.00,,,0.00,Wunderground v.1.15,2013-03-31 19:01:00,
2013-03-31 15:07:00,50.5,39.9,30.06,SW,226,4.0,9.0,67,0.00,,,0.00,Wunderground v.1.15,2013-03-31 19:07:00,
2013-03-31 15:12:00,50.4,39.9,30.06,WSW,258,4.0,4.0,67,0.00,,,0.00,Wunderground v.1.15,2013-03-31 19:12:00,
2013-03-31 15:18:00,50.8,39.8,30.05,SSW,207,3.0,5.0,66,0.00,,,0.00,Wunderground v.1.15,2013-03-31 19:18:00,
2013-03-31 15:23:00,50.8,39.8,30.05,SW,223,4.0,5.0,66,0.00,,,0.00,Wunderground v.1.15,2013-03-31 19:23:00,
2013-03-31 15:29:00,51.1,38.5,30.04,SSE,164,3.0,5.0,62,0.00,,,0.00,Wunderground v.1.15,2013-03-31 19:29:00,
2013-03-31 15:34:00,51.3,37.9,30.04,WSW,244,2.0,4.0,60,0.00,,,0.00,Wunderground v.1.15,2013-03-31 19:34:00,
2013-03-31 15:39:00,51.3,37.0,30.04,SSE,164,3.0,4.0,58,0.00,,,0.00,Wunderground v.1.15,2013-03-31 19:39:00,
2013-03-31 15:45:00,51.4,36.2,30.04,SW,215,3.0,6.0,56,0.00,,,0.00,Wunderground v.1.15,2013-03-31 19:45:00,
2013-03-31 15:50:00,51.2,35.6,30.03,SSW,209,3.0,3.0,55,0.00,,,0.00,Wunderground v.1.15,2013-03-31 19:50:00,
2013-03-31 15:56:00,51.3,36.6,30.03,SE,127,3.0,5.0,57,0.00,,,0.00,Wunderground v.1.15,2013-03-31 19:56:00,
2013-03-31 16:01:00,51.5,37.2,30.03,SSW,199,2.0,2.0,58,0.00,,,0.00,Wunderground v.1.15,2013-03-31 20:01:00,
2013-03-31 16:07:00,51.9,37.6,30.03,ESE,123,1.0,5.0,58,0.00,,,0.00,Wunderground v.1.15,2013-03-31 20:07:00,
2013-03-31 16:13:00,51.9,38.0,30.03,SSE,155,2.0,2.0,59,0.00,,,0.00,Wunderground v.1.15,2013-03-31 20:13:00,
2013-03-31 16:18:00,51.8,37.5,30.03,SSE,159,2.0,5.0,58,0.00,,,0.00,Wunderground v.1.15,2013-03-31 20:18:00,
2013-03-31 16:24:00,51.7,37.8,30.03,SSW,209,3.0,7.0,59,0.00,,,0.00,Wunderground v.1.15,2013-03-31 20:24:00,
2013-03-31 16:29:00,51.7,38.7,30.03,SE,144,3.0,7.0,61,0.00,,,0.00,Wunderground v.1.15,2013-03-31 20:29:00,
2013-03-31 16:34:00,51.7,38.7,30.02,South,174,3.0,4.0,61,0.00,,,0.00,Wunderground v.1.15,2013-03-31 20:34:00,
2013-03-31 16:40:00,51.9,38.4,30.02,SE,144,2.0,2.0,60,0.00,,,0.00,Wunderground v.1.15,2013-03-31 20:40:00,
2013-03-31 16:46:00,52.0,38.1,30.02,SSE,162,2.0,6.0,59,0.00,,,0.00,Wunderground v.1.15,2013-03-31 20:46:00,
2013-03-31 16:51:00,52.1,38.2,30.02,SE,130,2.0,3.0,59,0.00,,,0.00,Wunderground v.1.15,2013-03-31 20:51:00,
2013-03-31 16:57:00,52.2,37.0,30.01,South,184,2.0,6.0,56,0.00,,,0.00,Wunderground v.1.15,2013-03-31 20:57:00,
2013-03-31 17:02:00,52.2,37.0,30.01,SSW,194,1.0,6.0,56,0.00,,,0.00,Wunderground v.1.15,2013-03-31 21:02:00,
2013-03-31 17:07:00,52.1,37.3,30.01,SW,217,2.0,6.0,57,0.00,,,0.00,Wunderground v.1.15,2013-03-31 21:07:00,
2013-03-31 17:13:00,51.9,38.0,30.01,SSW,196,2.0,8.0,59,0.00,,,0.00,Wunderground v.1.15,2013-03-31 21:13:00,
2013-03-31 17:18:00,51.8,38.3,30.01,SW,224,1.0,8.0,60,0.00,,,0.00,Wunderground v.1.15,2013-03-31 21:18:00,
2013-03-31 17:24:00,51.8,38.3,30.01,SSW,197,1.0,1.0,60,0.00,,,0.00,Wunderground v.1.15,2013-03-31 21:24:00,
2013-03-31 17:29:00,51.8,37.9,30.01,SE,133,1.0,2.0,59,0.00,,,0.00,Wunderground v.1.15,2013-03-31 21:29:00,
2013-03-31 17:34:00,51.8,37.9,30.01,SSE,156,1.0,5.0,59,0.00,,,0.00,Wunderground v.1.15,2013-03-31 21:34:00,
2013-03-31 17:39:00,51.7,37.4,30.01,ESE,113,2.0,5.0,58,0.00,,,0.00,Wunderground v.1.15,2013-03-31 21:39:00,
2013-03-31 17:45:00,51.6,37.3,30.01,ESE,108,1.0,4.0,58,0.00,,,0.00,Wunderground v.1.15,2013-03-31 21:45:00,
2013-03-31 17:51:00,51.4,37.5,30.01,SE,140,2.0,2.0,59,0.00,,,0.00,Wunderground v.1.15,2013-03-31 21:51:00,
2013-03-31 17:56:00,51.2,37.4,30.01,SE,144,2.0,4.0,59,0.00,,,0.00,Wunderground v.1.15,2013-03-31 21:56:00,
2013-03-31 18:01:00,50.9,37.5,30.00,ESE,109,2.0,4.0,60,0.00,,,0.00,Wunderground v.1.15,2013-03-31 22:01:00,
2013-03-31 18:07:00,50.6,38.1,30.00,SSE,151,2.0,5.0,62,0.00,,,0.00,Wunderground v.1.15,2013-03-31 22:07:00,
2013-03-31 18:13:00,50.3,38.2,30.00,SE,140,2.0,5.0,63,0.00,,,0.00,Wunderground v.1.15,2013-03-31 22:13:00,
2013-03-31 18:18:00,50.0,39.1,30.00,South,182,2.0,5.0,66,0.00,,,0.00,Wunderground v.1.15,2013-03-31 22:18:00,
2013-03-31 18:24:00,49.7,39.2,30.00,ESE,103,1.0,2.0,67,0.00,,,0.00,Wunderground v.1.15,2013-03-31 22:24:00,
2013-03-31 18:29:00,49.5,39.7,30.00,ESE,108,2.0,4.0,69,0.00,,,0.00,Wunderground v.1.15,2013-03-31 22:29:00,
2013-03-31 18:35:00,49.1,40.1,30.00,ESE,108,2.0,5.0,71,0.00,,,0.00,Wunderground v.1.15,2013-03-31 22:35:00,
2013-03-31 18:40:00,48.8,40.2,29.99,SE,145,3.0,3.0,72,0.00,,,0.00,Wunderground v.1.15,2013-03-31 22:40:00,
2013-03-31 18:45:00,48.6,40.0,29.99,East,98,2.0,3.0,72,0.00,,,0.00,Wunderground v.1.15,2013-03-31 22:45:00,
2013-03-31 18:52:00,48.3,40.0,29.99,SSE,147,2.0,2.0,73,0.00,,,0.00,Wunderground v.1.15,2013-03-31 22:52:00,
2013-03-31 18:58:00,48.1,40.2,29.98,SE,124,2.0,3.0,74,0.00,,,0.00,Wunderground v.1.15,2013-03-31 22:58:00,
2013-03-31 19:03:00,47.9,40.0,29.99,SE,130,2.0,2.0,74,0.00,,,0.00,Wunderground v.1.15,2013-03-31 23:03:00,
2013-03-31 19:09:00,47.8,39.9,29.98,ESE,106,2.0,3.0,74,0.00,,,0.00,Wunderground v.1.15,2013-03-31 23:09:00,
2013-03-31 19:15:00,47.6,39.7,29.98,ENE,70,2.0,5.0,74,0.00,,,0.00,Wunderground v.1.15,2013-03-31 23:15:00,
2013-03-31 19:22:00,47.4,39.5,29.98,ESE,108,2.0,3.0,74,0.00,,,0.00,Wunderground v.1.15,2013-03-31 23:22:00,
2013-03-31 19:27:00,47.2,39.7,29.98,SSE,163,2.0,4.0,75,0.00,,,0.00,Wunderground v.1.15,2013-03-31 23:27:00,
2013-03-31 19:32:00,46.9,39.4,29.98,SSE,163,3.0,5.0,75,0.00,,,0.00,Wunderground v.1.15,2013-03-31 23:32:00,
2013-03-31 19:37:00,46.8,39.3,29.98,ESE,103,3.0,8.0,75,0.00,,,0.00,Wunderground v.1.15,2013-03-31 23:37:00,
2013-03-31 19:43:00,46.7,39.2,29.97,ESE,122,3.0,3.0,75,0.00,,,0.00,Wunderground v.1.15,2013-03-31 23:43:00,
2013-03-31 19:49:00,46.5,38.7,29.97,SE,141,3.0,5.0,74,0.00,,,0.00,Wunderground v.1.15,2013-03-31 23:49:00,
2013-03-31 19:54:00,46.5,38.3,29.97,ESE,123,2.0,3.0,73,0.00,,,0.00,Wunderground v.1.15,2013-03-31 23:54:00,
2013-03-31 20:00:00,46.5,38.3,29.96,East,101,2.0,3.0,73,0.00,,,0.00,Wunderground v.1.15,2013-04-01 00:00:00,
2013-03-31 20:05:00,46.6,38.4,29.95,East,98,3.0,7.0,73,0.00,,,0.00,Wunderground v.1.15,2013-04-01 00:05:00,
2013-03-31 20:11:00,46.6,38.1,29.95,ESE,108,3.0,3.0,72,0.00,,,0.00,Wunderground v.1.15,2013-04-01 00:11:00,
2013-03-31 20:16:00,46.7,38.1,29.95,SE,134,3.0,5.0,72,0.00,,,0.00,Wunderground v.1.15,2013-04-01 00:16:00,
2013-03-31 20:22:00,46.8,37.9,29.95,SE,139,4.0,5.0,71,0.00,,,0.00,Wunderground v.1.15,2013-04-01 00:22:00,
2013-03-31 20:28:00,46.9,37.6,29.94,ESE,121,4.0,7.0,70,0.00,,,0.00,Wunderground v.1.15,2013-04-01 00:28:00,
2013-03-31 20:33:00,47.0,37.7,29.94,ESE,119,4.0,4.0,70,0.00,,,0.00,Wunderground v.1.15,2013-04-01 00:33:00,
2013-03-31 20:39:00,47.1,37.4,29.94,SE,146,3.0,4.0,69,0.00,,,0.00,Wunderground v.1.15,2013-04-01 00:39:00,
2013-03-31 20:44:00,47.2,37.5,29.93,East,87,3.0,5.0,69,0.00,,,0.00,Wunderground v.1.15,2013-04-01 00:44:00,
2013-03-31 20:50:00,47.2,37.5,29.93,ESE,116,4.0,4.0,69,0.00,,,0.00,Wunderground v.1.15,2013-04-01 00:50:00,
2013-03-31 20:55:00,47.3,38.0,29.92,ESE,109,5.0,6.0,70,0.00,,,0.00,Wunderground v.1.15,2013-04-01 00:55:00,
2013-03-31 21:01:00,47.2,37.9,29.92,ESE,109,5.0,7.0,70,0.00,,,0.00,Wunderground v.1.15,2013-04-01 01:01:00,
2013-03-31 21:06:00,47.2,38.3,29.92,South,169,4.0,7.0,71,0.00,,,0.00,Wunderground v.1.15,2013-04-01 01:06:00,
2013-03-31 21:12:00,47.2,38.3,29.92,East,97,4.0,7.0,71,0.00,,,0.00,Wunderground v.1.15,2013-04-01 01:12:00,
2013-03-31 21:17:00,47.3,38.4,29.92,ESE,108,4.0,7.0,71,0.00,,,0.00,Wunderground v.1.15,2013-04-01 01:17:00,
2013-03-31 21:22:00,47.4,38.8,29.92,ENE,74,5.0,5.0,72,0.00,,,0.00,Wunderground v.1.15,2013-04-01 01:22:00,
2013-03-31 21:28:00,47.4,38.8,29.91,ESE,111,4.0,9.0,72,0.00,,,0.00,Wunderground v.1.15,2013-04-01 01:28:00,
2013-03-31 21:33:00,47.4,39.2,29.90,SE,132,5.0,7.0,73,0.00,,,0.00,Wunderground v.1.15,2013-04-01 01:33:00,
2013-03-31 21:39:00,47.3,39.1,29.90,SSE,148,6.0,10.0,73,0.00,,,0.00,Wunderground v.1.15,2013-04-01 01:39:00,
2013-03-31 21:45:00,47.3,39.4,29.89,SSE,158,5.0,6.0,74,0.00,,,0.00,Wunderground v.1.15,2013-04-01 01:45:00,
2013-03-31 21:50:00,47.2,39.7,29.89,South,191,5.0,7.0,75,0.00,,,0.00,Wunderground v.1.15,2013-04-01 01:50:00,
2013-03-31 21:56:00,47.0,40.2,29.88,ESE,107,5.0,15.0,77,0.00,,,0.00,Wunderground v.1.15,2013-04-01 01:56:00,
2013-03-31 22:02:00,46.8,41.0,29.88,ESE,104,5.0,5.0,80,0.00,,,0.00,Wunderground v.1.15,2013-04-01 02:02:00,
2013-03-31 22:07:00,46.6,41.7,29.87,East,98,4.0,6.0,83,0.00,,,0.01,Wunderground v.1.15,2013-04-01 02:07:00,
2013-03-31 22:12:00,46.2,41.9,29.86,SE,129,4.0,5.0,85,0.00,,,0.01,Wunderground v.1.15,2013-04-01 02:12:00,
2013-03-31 22:18:00,45.8,41.9,29.86,SE,128,4.0,5.0,86,0.08,,,0.02,Wunderground v.1.15,2013-04-01 02:18:00,
2013-03-31 22:24:00,45.3,42.0,29.85,SE,143,4.0,10.0,88,0.06,,,0.02,Wunderground v.1.15,2013-04-01 02:24:00,
2013-03-31 22:29:00,45.1,42.1,29.84,SE,144,5.0,10.0,89,0.04,,,0.02,Wunderground v.1.15,2013-04-01 02:29:00,
2013-03-31 22:35:00,45.1,42.3,29.84,ESE,102,6.0,10.0,90,0.04,,,0.03,Wunderground v.1.15,2013-04-01 02:35:00,
2013-03-31 22:40:00,45.1,42.3,29.83,SSE,161,6.0,8.0,90,0.04,,,0.03,Wunderground v.1.15,2013-04-01 02:40:00,
2013-03-31 22:46:00,45.0,42.5,29.82,ESE,109,6.0,8.0,91,0.04,,,0.03,Wunderground v.1.15,2013-04-01 02:46:00,
2013-03-31 22:51:00,45.0,42.8,29.82,ESE,105,6.0,6.0,92,0.00,,,0.03,Wunderground v.1.15,2013-04-01 02:51:00,
2013-03-31 22:57:00,45.0,42.8,29.81,SE,134,5.0,8.0,92,0.00,,,0.04,Wunderground v.1.15,2013-04-01 02:57:00,
2013-03-31 23:02:00,45.0,43.1,29.80,ESE,111,5.0,7.0,93,0.00,,,0.04,Wunderground v.1.15,2013-04-01 03:02:00,
2013-03-31 23:07:00,45.0,43.1,29.80,ESE,123,5.0,10.0,93,0.00,,,0.04,Wunderground v.1.15,2013-04-01 03:07:00,
2013-03-31 23:12:00,45.2,43.6,29.80,East,94,6.0,8.0,94,0.00,,,0.04,Wunderground v.1.15,2013-04-01 03:12:00,
2013-03-31 23:18:00,45.2,43.6,29.78,East,100,6.0,9.0,94,0.00,,,0.05,Wunderground v.1.15,2013-04-01 03:18:00,
2013-03-31 23:24:00,45.3,43.7,29.77,East,97,6.0,12.0,94,0.07,,,0.06,Wunderground v.1.15,2013-04-01 03:24:00,
2013-03-31 23:29:00,45.4,43.8,29.76,ENE,74,6.0,12.0,94,0.09,,,0.07,Wunderground v.1.15,2013-04-01 03:29:00,
2013-03-31 23:34:00,45.4,43.8,29.76,ESE,115,6.0,18.0,94,0.09,,,0.07,Wunderground v.1.15,2013-04-01 03:34:00,
2013-03-31 23:40:00,45.3,44.0,29.75,East,96,6.0,6.0,95,0.05,,,0.07,Wunderground v.1.15,2013-04-01 03:40:00,
2013-03-31 23:45:00,45.3,44.0,29.75,East,81,7.0,12.0,95,0.05,,,0.08,Wunderground v.1.15,2013-04-01 03:45:00,
2013-03-31 23:51:00,45.4,44.1,29.74,East,90,6.0,14.0,95,0.08,,,0.09,Wunderground v.1.15,2013-04-01 03:51:00,
2013-03-31 23:57:00,45.4,44.3,29.73,SE,143,5.0,14.0,96,0.10,,,0.10,Wunderground v.1.15,2013-04-01 03:57:00,